{"data":{"norad_id":69512,"intl_designator":"2026-133E","name":"STARLINK-37511","alt_names":[],"object_type":"PAYLOAD","status":"ACTIVE","operator":null,"country":"US","launch_date":"2026-06-12","launch_site_code":"AFETR","launch_vehicle":null,"mission":null,"orbit_class":"UNKNOWN","rcs_meters":null,"size_class":null,"mass_kg":null,"dimensions":null,"purposes":["comms"],"wikipedia_slug":null,"has_3d_model":false,"image_url":null,"decayed_at":null,"tle_current":{"epoch":"2026-09-19T22:17:44.983104Z","epoch_age_seconds":74815,"freshness":"FRESH","line1":"1 69512U 26133E   26262.92899286  .00022479  00000+0  67443-3 0  9999","line2":"2 69512  53.1568 232.5778 0002462  60.0786 300.0461 15.34399289 15416","mean_motion":15.34399289,"eccentricity":0.0002462,"inclination_deg":53.1568,"raan_deg":232.5778,"arg_perigee_deg":60.0786,"mean_anomaly_deg":300.0461,"bstar":0.00067443,"rev_number":1541,"period_min":93.847801567901,"perigee_km":461.02113806234,"apogee_km":464.38956883718,"semimajor_km":6840.8423534498,"source":"CELESTRAK","updated_at":"2026-09-20T09:00:44.211160Z"}}}